Location: Unspecified
(0.0000°N, 0.0000°E)
Time: 13:20:28
(UTC+00:00)

LightSail 2 - Pass Details

Date: 17 September 2019
Orbit: 699 x 732 km, 24.0° (Epoch: 17 September)

Event Time Altitude Azimuth Distance (km) Brightness Sun altitude
Exits shadow 04:57:53 14° 307° (NW) 1,909 6.9 -14.2°
Maximum altitude 05:00:09 18° 338° (NNW) 1,684 6.9 -13.6°
Drops below altitude 10° 05:03:33 10° 20° (NNE) 2,150 7.9 -12.8°
Sets 05:06:43 0° 40° (NE) 3,072 9.1 -12.0°
